TimeCEST,TemperatureF,Dew PointF,Humidity,Sea Level PressureIn,VisibilityMPH,Wind Direction,Wind SpeedMPH,Gust SpeedMPH,PrecipitationIn,Events,Conditions,WindDirDegrees,DateUTC
12:15 AM,59.0,48.2,67,29.80,-9999.0,South,4.5,-,N/A,,Clear,190,2013-04-26 22:15:00
12:45 AM,60.8,48.2,63,29.80,-9999.0,SSW,4.5,-,N/A,,Clear,200,2013-04-26 22:45:00
1:15 AM,60.8,46.4,59,29.80,-9999.0,SSW,6.7,-,N/A,,Clear,210,2013-04-26 23:15:00
1:45 AM,62.6,44.6,52,29.80,-9999.0,SW,4.5,-,N/A,,Clear,220,2013-04-26 23:45:00
2:15 AM,62.6,44.6,52,29.80,-9999.0,SW,6.7,-,N/A,,Clear,220,2013-04-27 00:15:00
2:45 AM,62.6,44.6,52,29.80,-9999.0,SW,4.5,-,N/A,,Clear,230,2013-04-27 00:45:00
3:15 AM,62.6,44.6,52,29.80,-9999.0,WSW,4.5,-,N/A,,Clear,240,2013-04-27 01:15:00
3:45 AM,-9999,-9999,N/A,-9999,-9999.0,SSW,8.9,-,N/A,,Clear,200,2013-04-27 01:45:00
4:15 AM,66.2,41.0,40,29.77,-9999.0,WSW,8.9,-,N/A,,Clear,250,2013-04-27 02:15:00
4:45 AM,64.4,41.0,42,29.77,-9999.0,WSW,8.9,-,N/A,,Clear,250,2013-04-27 02:45:00
5:15 AM,64.4,41.0,42,29.77,-9999.0,SW,6.7,-,N/A,,Clear,230,2013-04-27 03:15:00
5:45 AM,62.6,41.0,45,29.77,-9999.0,SW,6.7,-,N/A,,Clear,230,2013-04-27 03:45:00
6:15 AM,62.6,42.8,48,29.77,-9999.0,SW,6.7,-,N/A,,Clear,220,2013-04-27 04:15:00
6:45 AM,-9999,-9999,N/A,-9999,-9999.0,SSW,8.9,-,N/A,,Clear,200,2013-04-27 04:45:00
7:15 AM,64.4,44.6,49,29.77,-9999.0,SW,6.7,-,N/A,,Clear,220,2013-04-27 05:15:00
7:45 AM,66.2,44.6,46,29.77,-9999.0,SW,6.7,-,N/A,,Clear,220,2013-04-27 05:45:00
8:15 AM,69.8,44.6,40,29.77,-9999.0,WSW,11.2,-,N/A,,Clear,240,2013-04-27 06:15:00
8:45 AM,71.6,46.4,41,29.80,-9999.0,WSW,11.2,-,N/A,,Clear,240,2013-04-27 06:45:00
9:15 AM,71.6,46.4,41,29.80,-9999.0,WSW,13.4,-,N/A,,Clear,240,2013-04-27 07:15:00
9:45 AM,-9999,-9999,N/A,-9999,-9999.0,SW,11.2,-,N/A,,Clear,220,2013-04-27 07:45:00
10:15 AM,75.2,48.2,38,29.77,-9999.0,SW,11.2,-,N/A,,Clear,230,2013-04-27 08:15:00
10:45 AM,77.0,48.2,36,29.80,-9999.0,SW,11.2,-,N/A,,Clear,230,2013-04-27 08:45:00
11:15 AM,77.0,48.2,36,29.80,-9999.0,SW,8.9,-,N/A,,Clear,230,2013-04-27 09:15:00
11:45 AM,77.0,44.6,32,29.80,-9999.0,SW,11.2,-,N/A,,Clear,230,2013-04-27 09:45:00
12:15 PM,78.8,46.4,32,29.77,-9999.0,SW,8.9,-,N/A,,Clear,230,2013-04-27 10:15:00
12:45 PM,-9999,-9999,N/A,-9999,-9999.0,SW,8.9,-,N/A,,Clear,220,2013-04-27 10:45:00
1:15 PM,80.6,39.2,23,29.77,-9999.0,SSW,11.2,22.4,N/A,,Clear,210,2013-04-27 11:15:00
1:45 PM,80.6,35.6,20,29.77,-9999.0,SSW,11.2,24.6,N/A,,Clear,210,2013-04-27 11:45:00
2:15 PM,78.8,35.6,21,29.77,-9999.0,WSW,13.4,-,N/A,,Clear,240,2013-04-27 12:15:00
2:45 PM,80.6,37.4,21,29.74,-9999.0,SW,13.4,-,N/A,,Clear,230,2013-04-27 12:45:00
3:15 PM,80.6,37.4,21,29.74,-9999.0,WSW,8.9,-,N/A,,Clear,250,2013-04-27 13:15:00
3:45 PM,-9999,-9999,N/A,-9999,-9999.0,SW,8.9,-,N/A,,Clear,220,2013-04-27 13:45:00
4:15 PM,80.6,35.6,20,29.74,-9999.0,SW,6.7,-,N/A,,Clear,230,2013-04-27 14:15:00
4:45 PM,82.4,37.4,20,29.74,-9999.0,WSW,6.7,-,N/A,,Clear,240,2013-04-27 14:45:00
5:15 PM,82.4,37.4,20,29.71,-9999.0,West,6.7,-,N/A,,Clear,280,2013-04-27 15:15:00
5:45 PM,78.8,39.2,24,29.71,-9999.0,West,6.7,-,N/A,,Clear,280,2013-04-27 15:45:00
6:15 PM,77.0,41.0,28,29.71,-9999.0,WNW,4.5,-,N/A,,Clear,290,2013-04-27 16:15:00
6:45 PM,-9999,-9999,N/A,-9999,-9999.0,SW,8.9,-,N/A,,Clear,230,2013-04-27 16:45:00
7:15 PM,75.2,39.2,27,29.71,-9999.0,Variable,2.2,-,N/A,,Clear,0,2013-04-27 17:15:00
7:45 PM,69.8,42.8,38,29.71,-9999.0,Calm,Calm,-,N/A,,Clear,0,2013-04-27 17:45:00
8:15 PM,69.8,44.6,40,29.71,-9999.0,Calm,Calm,-,N/A,,Clear,0,2013-04-27 18:15:00
8:45 PM,66.2,42.8,43,29.74,-9999.0,Calm,Calm,-,N/A,,Clear,0,2013-04-27 18:45:00
9:15 PM,64.4,46.4,52,29.74,-9999.0,Calm,Calm,-,N/A,,Clear,0,2013-04-27 19:15:00
9:45 PM,-9999,-9999,N/A,-9999,1.7,SW,8.9,-,N/A,Rain,Light Rain,220,2013-04-27 19:45:00
10:06 PM,68.0,46.4,46,29.74,-9999.0,West,13.4,-,N/A,,Clear,260,2013-04-27 20:06:00
10:15 PM,68.0,48.2,49,29.74,-9999.0,West,13.4,-,N/A,,Clear,260,2013-04-27 20:15:00
10:45 PM,66.2,48.2,52,29.77,-9999.0,West,11.2,-,N/A,,Clear,270,2013-04-27 20:45:00
11:15 PM,66.2,48.2,52,29.77,-9999.0,West,13.4,-,N/A,,Clear,270,2013-04-27 21:15:00
11:45 PM,64.4,48.2,56,29.77,-9999.0,West,8.9,-,N/A,,Clear,270,2013-04-27 21:45:00